Location: Neuvy Saint Sepulchre
(46.5953°N, 1.8122°E)
Time: 06:51:50
(UTC+01:00)

ISS - Pass Details

Date: 22 November 2023
Orbit: 416 x 417 km, 51.6° (Epoch: 01 December)

Event Time Altitude Azimuth Distance (km) Brightness Sun altitude
Rises 19:00:25 0° 264° (W) 2,357 1.8 -18.1°
Reaches altitude 10° 19:02:35 10° 271° (W) 1,495 0.2 -18.5°
Maximum altitude 19:05:49 44° 345° (NNW) 593 -3.0 -19.0°
Enters shadow 19:06:10 42° 6° (N) 613 -3.1 -19.1°
